Вернуться в каталог

STARLINK-34731

АктивенСвязьVLEO
NORAD 65029·PAYLOAD·🇺🇸 United States

Запущен Jul 30, 2025 с Cape Canaveral Space Force Station

Loading…

Ближайшие Пролёты (ближайшие 24 часа)

TLE

СвежийSource: CelesTrak SupGP

Эпоха: Sep 14, 2026, 21:07 UTC

1 65029C 25161Q   26257.88034722 -.00039256  00000+0 -11599-2 0  2573
2 65029  53.1573 131.6856 0001265  81.1911  98.1438 15.34408062    10

Отслеживайте STARLINK-34731 в реальном времени с AllMySat

Download on the App Store